RYR82JL EDDH-EGSS

Flight info

Callsign RYR82JL
Flight time N/A
Altitude 34000
Route WSN5G WSN N125 EKNON DCT NOGRO M40 RINIS
Aircraft B738/M-SDE2E3FGHIRWXY/LB1

Departure

Time 2026-04-23 16:47
Airport Hamburg Helmut Schmidt Airport (EDDH)

Arrival

Time N/A
Airport London Stansted Airport (EGSS)
Time Latitude Longitude Altitude Speed Heading
2026-04-23 16:14 53.63036 10.00345 63 ft 0 kts 120°
2026-04-23 16:31 53.63036 10.00346 63 ft 0 kts 120°
2026-04-23 16:31 53.63034 10.00350 63 ft 0 kts 120°
2026-04-23 16:32 53.63033 10.00354 62 ft 0 kts 120°
2026-04-23 16:32 53.63032 10.00357 62 ft 0 kts 120°
2026-04-23 16:33 53.63038 10.00339 63 ft 2 kts 119°
2026-04-23 16:33 53.63039 10.00335 63 ft 0 kts 120°
2026-04-23 16:37 53.63038 10.00339 63 ft 0 kts 120°
2026-04-23 16:38 53.63037 10.00343 63 ft 0 kts 120°
2026-04-23 16:38 53.63036 10.00347 63 ft 0 kts 120°
2026-04-23 16:39 53.63036 10.00344 63 ft 1 kts 120°
2026-04-23 16:39 53.63044 10.00323 63 ft 2 kts 120°
2026-04-23 16:39 53.63051 10.00301 63 ft 2 kts 120°
2026-04-23 16:40 53.63059 10.00279 63 ft 2 kts 120°
2026-04-23 16:40 53.63066 10.00258 63 ft 2 kts 120°
2026-04-23 16:40 53.63073 10.00236 63 ft 2 kts 120°
2026-04-23 16:40 53.63082 10.00215 63 ft 2 kts 138°
2026-04-23 16:41 53.63094 10.00201 63 ft 2 kts 153°
2026-04-23 16:41 53.63107 10.00192 63 ft 2 kts 169°
2026-04-23 16:41 53.63114 10.00191 63 ft 1 kts 178°
2026-04-23 16:41 53.63118 10.00191 63 ft 0 kts 176°
2026-04-23 16:44 53.63116 10.00191 62 ft 1 kts 176°
2026-04-23 16:44 53.63085 10.00188 62 ft 6 kts 194°
2026-04-23 16:44 53.63047 10.00160 63 ft 5 kts 208°
2026-04-23 16:44 53.63019 10.00133 63 ft 4 kts 209°
2026-04-23 16:45 53.62987 10.00099 62 ft 5 kts 213°
2026-04-23 16:45 53.62959 10.00065 62 ft 4 kts 220°
2026-04-23 16:45 53.62938 10.00027 62 ft 4 kts 232°
2026-04-23 16:45 53.62917 9.99975 62 ft 4 kts 238°
2026-04-23 16:46 53.62899 9.99919 63 ft 5 kts 242°
2026-04-23 16:46 53.62877 9.99845 63 ft 7 kts 245°
2026-04-23 16:46 53.62880 9.99747 63 ft 8 kts 309°
2026-04-23 16:46 53.62909 9.99705 63 ft 0 kts 324°
2026-04-23 16:47 53.62962 9.99651 63 ft 42 kts 332°
2026-04-23 16:47 53.63492 9.99205 63 ft 124 kts 333°
2026-04-23 16:47 53.64416 9.98411 458 ft 157 kts 333°
2026-04-23 16:47 53.65341 9.97635 1335 ft 156 kts 333°
2026-04-23 16:48 53.66367 9.96743 1902 ft 177 kts 333°
2026-04-23 16:48 53.67522 9.95752 2449 ft 196 kts 333°
2026-04-23 16:48 53.68819 9.94642 2842 ft 221 kts 333°
2026-04-23 16:48 53.70249 9.93347 3248 ft 249 kts 326°
2026-04-23 16:49 53.71075 9.91973 3857 ft 257 kts 303°
2026-04-23 16:49 53.71580 9.88073 4938 ft 271 kts 262°
2026-04-23 16:49 53.70919 9.85109 5495 ft 273 kts 242°
2026-04-23 16:49 53.70112 9.82203 6352 ft 281 kts 249°
2026-04-23 16:50 53.69427 9.78980 6512 ft 294 kts 251°
2026-04-23 16:50 53.68780 9.75782 6012 ft 290 kts 251°
2026-04-23 16:50 53.68113 9.72517 5148 ft 298 kts 251°
2026-04-23 16:50 53.67452 9.69263 4958 ft 294 kts 251°
2026-04-23 16:51 53.66782 9.65952 5081 ft 308 kts 251°
2026-04-23 16:51 53.66093 9.62552 5716 ft 295 kts 251°
2026-04-23 16:51 53.65436 9.59324 5794 ft 291 kts 250°
2026-04-23 16:51 53.64497 9.56307 5871 ft 298 kts 235°
2026-04-23 16:52 53.63247 9.53452 6109 ft 297 kts 234°
2026-04-23 16:52 53.62077 9.50719 6613 ft 281 kts 234°
2026-04-23 16:52 53.60946 9.48064 6911 ft 292 kts 234°
2026-04-23 16:52 53.59790 9.45357 7767 ft 282 kts 234°
2026-04-23 16:53 53.58730 9.42876 8299 ft 258 kts 234°
2026-04-23 16:53 53.57638 9.40321 8409 ft 271 kts 234°
2026-04-23 16:53 53.56522 9.37714 8460 ft 287 kts 234°
2026-04-23 16:53 53.55360 9.35000 8933 ft 291 kts 234°
2026-04-23 16:54 53.54157 9.32193 9259 ft 293 kts 234°
2026-04-23 16:54 53.52965 9.29420 9948 ft 292 kts 234°
2026-04-23 16:54 53.51786 9.26689 10654 ft 293 kts 233°
2026-04-23 16:54 53.50578 9.23894 11149 ft 303 kts 234°
2026-04-23 16:55 53.49260 9.20844 11236 ft 336 kts 234°
2026-04-23 16:55 53.47893 9.17687 12282 ft 341 kts 234°
2026-04-23 16:55 53.46481 9.14430 13273 ft 349 kts 234°
2026-04-23 16:55 53.45049 9.11131 14351 ft 354 kts 234°
2026-04-23 16:56 53.43600 9.07798 15377 ft 359 kts 234°
2026-04-23 16:56 53.42142 9.04450 16371 ft 364 kts 234°
2026-04-23 16:56 53.40634 9.00990 17336 ft 370 kts 234°
2026-04-23 16:56 53.39116 8.97513 18229 ft 373 kts 234°
2026-04-23 16:57 53.37602 8.94048 19079 ft 378 kts 234°
2026-04-23 16:57 53.36066 8.90449 19907 ft 384 kts 236°
2026-04-23 16:57 53.34692 8.86581 20721 ft 389 kts 243°
2026-04-23 16:57 53.33688 8.82626 21478 ft 393 kts 250°
2026-04-23 16:58 53.32754 8.78293 22250 ft 398 kts 250°
2026-04-23 16:58 53.31779 8.73903 22985 ft 403 kts 249°
2026-04-23 16:58 53.30843 8.69760 23649 ft 407 kts 249°
2026-04-23 16:58 53.29836 8.65276 24337 ft 411 kts 250°
2026-04-23 16:59 53.28842 8.60782 24992 ft 416 kts 250°
2026-04-23 16:59 53.27854 8.56271 25630 ft 419 kts 250°
2026-04-23 16:59 53.26858 8.51739 26473 ft 417 kts 250°
2026-04-23 16:59 53.25893 8.47218 27272 ft 415 kts 252°
2026-04-23 17:00 53.25032 8.42641 28038 ft 414 kts 253°
2026-04-23 17:00 53.24198 8.38053 28800 ft 412 kts 253°
2026-04-23 17:00 53.23358 8.33553 29519 ft 411 kts 252°
2026-04-23 17:00 53.22530 8.29175 30204 ft 410 kts 252°
2026-04-23 17:01 53.21673 8.24651 30894 ft 409 kts 252°
2026-04-23 17:01 53.20825 8.20179 31560 ft 407 kts 252°
2026-04-23 17:01 53.19980 8.15737 32205 ft 406 kts 252°
2026-04-23 17:01 53.19118 8.11223 32849 ft 405 kts 252°
2026-04-23 17:02 53.18565 8.08305 33256 ft 404 kts 252°
2026-04-23 17:02 53.17440 8.02312 33959 ft 406 kts 252°
2026-04-23 17:02 53.16591 7.97800 33998 ft 417 kts 252°
2026-04-23 17:02 53.15731 7.93257 34002 ft 429 kts 252°
2026-04-23 17:03 53.13927 7.83759 33999 ft 440 kts 252°
2026-04-23 17:03 53.12088 7.74132 33999 ft 438 kts 252°
2026-04-23 17:04 53.10263 7.64624 33999 ft 438 kts 252°
2026-04-23 17:04 53.08405 7.55017 33999 ft 438 kts 252°
2026-04-23 17:05 53.06538 7.45410 34000 ft 438 kts 252°
2026-04-23 17:05 53.04665 7.35819 34000 ft 438 kts 252°
2026-04-23 17:06 53.03019 7.27437 33999 ft 438 kts 251°